Simultaneous Nadir Overpasses (SNOs) Predictions

Prediction of SNOs between FY3D and METOP-A Satellite Orbit:

Table of predicted SNOs for the next 14.0 days since TLE Epoch: 5/30/2020
Index Date (FY3D) Time (FY3D) Lat,Lon (FY3D) SZA (FY3D ) Date (METOP-A) Time (METOP-A) Lat,Lon (METOP-A) SZA (METOP-A ) Distance(km) Time Diff (sec)
1 06/08/2020 22:13:49 76.26,-169.61 53.84 06/08/2020 22:14:54 76.20,-166.10 53.54 93.17 65
2 06/08/2020 23:04:31 -76.18, -2.01 126.26 06/08/2020 23:05:38 -76.10, 0.89 126.55 77.87 67
3 06/08/2020 23:55:12 75.98, 165.98 53.50 06/08/2020 23:56:22 75.90, 167.57 53.30 43.73 70
4 06/09/2020 00:45:53 -75.85, -26.28 126.66 06/09/2020 00:47:05 -75.85, -25.27 126.75 27.43 72
5 06/09/2020 01:36:35 75.70, 141.54 53.16 06/09/2020 01:37:48 75.69, 141.57 53.13 0.95 73
6 06/09/2020 02:27:19 -75.71, -51.19 126.83 06/09/2020 02:28:30 -75.69, -51.12 126.88 3.26 71
7 06/09/2020 03:18:04 75.69, 116.18 53.15 06/09/2020 03:19:10 75.67, 116.17 53.11 2.40 66
8 06/09/2020 04:08:47 -75.66, -76.40 126.89 06/09/2020 04:09:52 -75.67, -76.52 126.90 3.46 65
9 06/09/2020 04:59:33 75.69, 90.82 53.14 06/09/2020 05:00:31 75.70, 90.91 53.13 2.70 58
10 06/09/2020 05:50:17 -75.71,-101.91 126.85 06/09/2020 05:51:13 -75.69,-101.78 126.88 3.74 56
11 06/09/2020 06:41:02 75.69, 65.46 53.13 06/09/2020 06:41:53 75.68, 65.51 53.11 1.63 51
12 06/09/2020 07:31:45 -75.66,-127.12 126.91 06/09/2020 07:32:35 -75.67,-127.18 126.90 2.72 50
13 06/09/2020 08:22:31 75.69, 40.10 53.12 06/09/2020 08:23:15 75.66, 40.10 53.09 2.85 44
14 06/09/2020 09:13:14 -75.65,-152.48 126.92 06/09/2020 09:13:57 -75.65,-152.59 126.93 2.91 43
15 06/09/2020 10:04:00 75.68, 14.74 53.11 06/09/2020 10:04:36 75.69, 14.85 53.10 3.07 36
16 06/09/2020 10:54:43 -75.65,-177.84 126.93 06/09/2020 10:55:18 -75.68,-177.84 126.91 3.58 35
17 06/09/2020 11:45:29 75.68, -10.63 53.11 06/09/2020 11:45:58 75.67, -10.56 53.08 2.32 29
18 06/09/2020 12:36:12 -75.65, 156.80 126.94 06/09/2020 12:36:40 -75.66, 156.75 126.93 2.09 28
19 06/09/2020 13:26:58 75.68, -35.99 53.10 06/09/2020 13:27:20 75.65, -35.96 53.06 3.38 22
20 06/09/2020 14:17:41 -75.64, 131.44 126.95 06/09/2020 14:18:02 -75.64, 131.35 126.95 2.41 21
21 06/09/2020 15:08:27 75.67, -61.35 53.09 06/09/2020 15:08:41 75.67, -61.22 53.08 3.54 14
22 06/09/2020 15:59:10 -75.64, 106.08 126.96 06/09/2020 15:59:23 -75.67, 106.09 126.94 3.20 13
23 06/09/2020 16:49:56 75.67, -86.71 53.08 06/09/2020 16:50:03 75.65, -86.62 53.05 3.02 7
24 06/09/2020 17:40:39 -75.64, 80.71 126.97 06/09/2020 17:40:45 -75.65, 80.69 126.96 1.48 6
25 06/09/2020 18:31:23 75.62,-111.92 53.02 06/09/2020 18:31:24 75.63,-112.03 53.03 3.23 1
26 06/09/2020 19:22:07 -75.63, 55.35 126.98 06/09/2020 19:22:06 -75.63, 55.29 126.98 1.99 1
27 06/09/2020 20:12:53 75.66,-137.43 53.06 06/09/2020 20:12:45 75.66,-137.28 53.05 4.08 8
28 06/09/2020 21:03:36 -75.63, 29.99 126.98 06/09/2020 21:03:27 -75.66, 30.03 126.96 2.92 9
29 06/09/2020 21:54:21 75.61,-162.64 53.00 06/09/2020 21:54:07 75.64,-162.69 53.03 3.11 14
30 06/09/2020 22:45:05 -75.63, 4.63 126.99 06/09/2020 22:44:49 -75.64, 4.62 126.98 0.90 16
31 06/09/2020 23:35:50 75.61, 172.00 52.99 06/09/2020 23:35:29 75.62, 171.91 53.01 2.56 21
32 06/10/2020 00:26:34 -75.62, -20.73 127.00 06/10/2020 00:26:11 -75.62, -20.78 127.00 1.72 23
33 06/10/2020 01:17:19 75.61, 146.64 52.98 06/10/2020 01:16:51 75.60, 146.51 52.99 3.67 28
34 06/10/2020 02:08:03 -75.62, -46.09 127.01 06/10/2020 02:07:32 -75.64, -46.04 126.98 2.76 31
35 06/10/2020 02:58:48 75.61, 121.27 52.97 06/10/2020 02:58:12 75.63, 121.25 53.01 2.49 36
36 06/10/2020 03:49:32 -75.62, -71.45 127.02 06/10/2020 03:48:54 -75.62, -71.44 127.00 0.54 38
37 06/10/2020 04:40:17 75.60, 95.91 52.96 06/10/2020 04:39:34 75.61, 95.85 52.99 1.90 43
38 06/10/2020 05:31:01 -75.61, -96.81 127.03 06/10/2020 05:30:16 -75.60, -96.84 127.02 1.68 45
39 06/10/2020 06:21:46 75.60, 70.55 52.96 06/10/2020 06:20:56 75.59, 70.44 52.96 3.33 50
40 06/10/2020 07:12:30 -75.61,-122.17 127.04 06/10/2020 07:11:37 -75.63,-122.10 127.01 2.76 53
41 06/10/2020 08:03:15 75.60, 45.19 52.95 06/10/2020 08:02:17 75.61, 45.19 52.98 1.93 58
42 06/10/2020 08:53:59 -75.61,-147.53 127.04 06/10/2020 08:52:59 -75.61,-147.50 127.03 0.80 60
43 06/10/2020 09:44:44 75.59, 19.83 52.94 06/10/2020 09:43:39 75.59, 19.78 52.96 1.30 65
44 06/10/2020 10:35:28 -75.61,-172.89 127.05 06/10/2020 10:34:21 -75.59,-172.91 127.05 1.88 67
45 06/10/2020 11:26:13 75.59, -5.53 52.93 06/10/2020 11:25:01 75.57, -5.62 52.94 3.12 72
46 06/10/2020 12:16:57 -75.60, 161.75 127.06 06/10/2020 12:15:42 -75.62, 161.84 127.03 2.91 75
47 06/10/2020 13:07:38 75.40, -30.31 52.70 06/10/2020 13:06:26 75.41, -31.45 52.81 32.07 72
48 06/10/2020 13:58:20 -75.32, 137.26 127.40 06/10/2020 13:57:09 -75.36, 135.72 127.23 43.36 71
49 06/10/2020 14:49:01 75.11, -54.82 52.36 06/10/2020 14:47:54 75.10, -57.68 52.58 81.89 67
50 06/10/2020 15:39:43 -75.03, 112.73 127.74 06/10/2020 15:38:37 -75.05, 109.50 127.46 92.78 66




NCC Satellite Simultaneous Nadir Overpasses (SNOs) Prediction Service
